Location: Christchurch
(43.5330°S, 172.6330°E)
Time: 09:18:18
(UTC+13:00)

Cosmos 540 Rocket - Pass Details

Date: 24 January 2019
Orbit: 741 x 753 km, 74.1° (Epoch: 21 February)

Event Time Altitude Azimuth Distance (km) Brightness Sun altitude
Rises 22:07:49 0° 196° (SSW) 3,245 7.7 -10.4°
Reaches altitude 10° 22:10:19 10° 189° (S) 2,312 6.8 -10.8°
Maximum altitude 22:15:21 45° 116° (ESE) 1,038 4.0 -11.5°
Enters shadow 22:19:07 17° 49° (NE) 1,865 4.8 -12.0°
